Regional Weather Roundup
Issued by NWS

Home | Current Version | Previous Version | Text Only | Print | Product List | Glossary Off
Versions: 1 2 3 4 5 6 7 8 9 10 11 12 13 14 15 16 17 18 19 20 21 22 23 24 25 26 27

000
ASUS45 KCYS 281810
RWRWY

WYOMING REGIONAL WEATHER ROUNDUP
NATIONAL WEATHER SERVICE CHEYENNE WY
1200 PM MDT WED JUN 28 2017

NOTE:  "FAIR" INDICATES FEW OR NO CLOUDS BELOW 12,000 FEET
WITH NO SIGNIFICANT WEATHER AND/OR OBSTRUCTIONS TO VISIBILITY.

WYZ001-281900-
YELLOWSTONE NATIONAL PARK

CITY           SKY/WX    TMP DP  RH WIND       PRES   REMARKS
LK YELLOWSTONE   N/A     57  43  59 VRB5      30.05F
6HR MIN TEMP:  36; 6HR MAX TEMP:  57;

W YELLOWSTONE  NOT AVBL

$$
WYZ002>013-054>058-071-098>099-281900-
NORTHERN WYOMING

CITY           SKY/WX    TMP DP  RH WIND       PRES   REMARKS
JACKSON        TSTM      61  46  59 W7        29.98F
CODY           FAIR      75  38  26 W16G23    29.85F
GREYBULL       FAIR      79  41  25 VRB5      29.78F
6HR MIN TEMP:  52; 6HR MAX TEMP:  79;

WORLAND        FAIR      76  44  32 VRB3      29.80F
6HR MIN TEMP:  48; 6HR MAX TEMP:  77;

SHERIDAN       PTSUNNY   74  48  39 S7        29.79R
6HR MIN TEMP:  49; 6HR MAX TEMP:  78;

BUFFALO        FAIR      72  46  39 CALM      29.84F
6HR MIN TEMP:  51; 6HR MAX TEMP:  73;

GILLETTE       FAIR      75  50  41 MISG      29.82F
6HR MIN TEMP:  51; 6HR MAX TEMP:  75;

NEWCASTLE      FAIR      73  41  31 SW5       29.86S

$$
WYZ014>020-022>026-101>103-281900-
CENTRAL WYOMING

CITY           SKY/WX    TMP DP  RH WIND       PRES   REMARKS
BIG PINEY      FAIR      71  40  32 SW13G20   30.01F
6HR MIN TEMP:  35; 6HR MAX TEMP:  71;

PINEDALE       MOCLDY    66  36  32 N5        30.03S
DUBOIS         FAIR      64  32  29 W22G32    29.97F
LANDER         PTSUNNY   67  45  45 S7        29.92S
6HR MIN TEMP:  46; 6HR MAX TEMP:  71;

RIVERTON       FAIR      75  36  24 VRB5      29.90F
6HR MIN TEMP:  51; 6HR MAX TEMP:  75;

CASPER         PTSUNNY   75  35  23 W13G23    29.87F
6HR MIN TEMP:  48; 6HR MAX TEMP:  79;

DOUGLAS        FAIR      78  39  24 SE5       29.86F
6HR MIN TEMP:  46; 6HR MAX TEMP:  78;


$$
WYZ021-027>030-104>119-281900-
SOUTHERN WYOMING

CITY           SKY/WX    TMP DP  RH WIND       PRES   REMARKS
EVANSTON       FAIR      74  25  16 SW21G29   30.05S
6HR MIN TEMP:  49; 6HR MAX TEMP:  74;

KEMMERER         N/A     70  32  24 SW13G23   30.05S
FORT BRIDGER   FAIR      77  22  12 W17G29    30.06S
ROCK SPRINGS   FAIR      76  28  17 W15G23    30.00F
6HR MIN TEMP:  50; 6HR MAX TEMP:  77;

DIXON          FAIR      78  32  18 W8        30.02S
RAWLINS        FAIR      77  30  17 SW20G32   29.99F
6HR MIN TEMP:  39; 6HR MAX TEMP:  78;

SARATOGA       FAIR      75  32  20 W17       30.03S
LARAMIE        FAIR      76  26  15 SW13G20   30.02S
6HR MIN TEMP:  40; 6HR MAX TEMP:  77;

CHEYENNE       FAIR      79  37  22 SW14G23   29.95F
6HR MIN TEMP:  52; 6HR MAX TEMP:  79;

TORRINGTON     FAIR      81  41  24 SW9       29.83F
6HR MIN TEMP:  53; 6HR MAX TEMP:  82;

PINE BLUFFS    FAIR      79  41  25 S9G16     29.92F

$$




USA.gov is the U.S. government's official web portal to all federal, state and local government web resources and services.